SCP
0 0 0 0 0 0 0 0 0 0 0 -0 0 0 0 0 0 0 0 0 0 0 0 0 0 0 0 0 0 0 0 0 0 0 0 0 0 0 0 0 0 0 0 0
0 0 0 0 0 0 0 0 0 0 0 0 0 0 0 0 0 0 0 0 0 0 0 0 0 0 0 0 0 0 0 0 0 0 0 0 0 0 0 0 0 0 0 0
0 0 0 0 0 0 0 0 0 0 0 0 0 0 0 0 0 0 0 0 0 0 0 0 0 0 0 0 0 0 0 0 0 0 0 0 0 0 0 0 0 0 0 0
0 0 0 0 0 0 0 0 0 0 0 0 0 0 0 0 0 0 0 0 0 0 0 0 0 0 0 0 0 0 0 0 0 0 0 0 0 0 0 0 0 0 0 0
0 0 0 0 0 0 0 0 0 0 0 0 0 0 0 0 0 0 0 0 0 0 0 0 0 0 0 0 0 0 0 0 0 0 0 0 0 0 0 0 0 0 0 0
0 0 0 0 0 0 0 0 0 0 0 0 0 0 0 0 0 0 0 0 0 0 0 0 0 0 0 0 0 0 0 0 0 0 0 0 0 0 0 0 0 0 0 0
0 0 0 0 0 0 0 0 0 0 0 0 0 0 0 0 0 0 0 0 0 0 0 0 0 0 0 0 0 0 0 0 0 0 0 0 0 0 0 0 0 0 0 0
0 0 0 0 0 0 0 0 0 0 0 0 0 0 0 0 0 0 0 0 0 0 0 0 0 0 0 0 0 0 0 0 0 0 0 0 0 0 0 0 0 0 0 0
0 0 0 0 0 0 0 0 0 0 0 0 0 0 0 0 0 0 0 0 0 0 0 0 0 0 0 0 0 0 0 0 0 0 0 0 0 0 0 0 0 0 0 0
0 0 0 0 0 0 0 0 0 0 0 0 0 0 0 0 0 0 0 0 0 0 0 0 0 0 0 0 0 0 0 0 0 0 0 0 0 0 0 0 0 0 0 0
0 0 0 0 0 0 0 0 0 0 0 0 0 0 0 0 0 0 0 0 0 0 0 0 0 0 0 0 0 0 0 0 0 0 0 0 0 0 0 0 0 0 0 0
0 0 0 0 0 0 0 0 0 0 0 0 0 0 0 0 0 0 0 0 0 0 0 0 0 0 0 0 0 0 0 0 0 0 0 0 0 0 0 0 0 0 0 0
0 0 0 0 0 0 0 0 0 0 0 0 0 0 0 0 0 0 0 0 0 0 0 0 0 0 0 0 0 0 0 0 0 0 0 0 0 0 0 0 0 0 0 0
0 0 0 0 0 0 0 0 0 0 0 0 0 0 0 0 0 0 0 0 0 0 0 0 0 0 0 0 0 0 0 0 0 0 0 0 0 0 0 0 0 0 0 0
0 0 0 0 0 0 0 0 0 0 0 0 0 0 0 0 0 0 0 0 0 0 0 0 0 0 0 0 0 0 0 0 0 0 0 0 0 0 0 0 0 0 0 0
0 0 0 0 0 0 0 0 0 0 0 0 0 0 0 0 0 0 0 0 0 0 0 0 0 0 0 0 0 0 0 0 0 0 0 0 0 0 0 0 0 0 0 0
0 0 0 0 0 0 0 0 0 0 0 0 0 0 0 0 0 0 0 0 0 0 0 0 0 0 0 0 0 0 0 0 0 0 0 0 0 0 0 0 0 0 0 0
0 0 0 0 0 0 0 0 0 0 0 0 0 0 0 0 0 0 0 0 0 0 0 0 0 0 0 0 0 0 0 0 0 0 0 0 0 0 0 0 0 0 0 0
0 0 0 0 0 0 0 0 0 0 0 0 0 0 0 0 0 0 0 0 0 0 0 0 0 0 0 0 0 0 0 0 0 0 0 0 0 0 0 0 0 0 0 0
0 0 0 0 0 0 0 0 0 0 0 0 0 0 0 0 0 0 0 0 0 0 0 0 0 0 0 0 0 0 0 0 0 0 0 0 0 0 0 0 0 0 0 0
0 0 0 0 0 0 0 0 0 0 0 0 0 0 0 0 0 0 0 0 0 0 0 0 0 0 0 0 0 0 0 0 0 0 0 0 0 0 0 0 0 0 0 0
0 0 0 0 0 0 0 0 0 0 0 0 0 0 0 0 0 0 0 0 0 0 0 0 0 0 0 0 0 0 0 0 0 0 0 0 0 0 0 0 0 0 0 0
0 0 0 0 0 0 0 0 0 0 0 0 0 0 0 0 0 0 0 0 0 0 0 0 0 0 0 0 0 0 0 0 0 0 0 0 0 0 0 0 0 0 0 0
0 0 0 0 0 0 0 0 0 0 0 0 0 0 0 0 0 0 0 0 0 0 0 0 0 0 0 0 0 0 0 0 0 0 0 0 0 0 0 0 0 0 0 0
0 0 0 0 0 0 0 0 0 0 0 0 0 0 0 0 0 0 0 0 0 0 0 0 0 0 0 0 0 0 0 0 0 0 0 0 0 0 0 0 0 0 0 0
0 0 0 0 0 0 0 0 0 0 0 0 0 0 0 0 0 0 0 0 0 0 0 0 0 0 0 0 0 0 0 0 0 0 0 0 0 0 0 0 0 0 0 0
0 0 0 0 0 0 0 0 0 0 0 0 0 0 0 0 0 0 0 0 0 0 0 0 0 0 0 0 0 0 0 0 0 0 0 0 0 0 0 0 0 0 0 0
Wind_Speed_500mb
44 15 6 11 9 20 33 57 23 62 40 62 30 28 43 65 59 51 56 56 53 50 46 50 51 51 56 63 71 81 86 89 92 92 90 86 85 84 86 90 94 91 85 78
39 34 19 18 15 28 46 46 33 60 56 64 58 35 34 55 66 80 80 74 72 62 58 58 62 63 62 65 73 79 86 90 91 92 93 92 90 88 87 92 95 94 87 80
31 29 14 25 51 50 42 48 42 43 71 43 43 35 55 59 70 78 76 84 86 79 78 72 67 68 71 70 73 79 84 88 92 95 97 95 90 88 89 93 96 95 89 81
21 9 29 34 16 45 50 53 46 48 68 63 57 66 72 69 66 78 77 80 87 83 74 72 67 69 70 68 68 75 83 87 91 96 97 95 91 88 88 92 95 92 86 79
28 38 34 23 21 27 23 43 45 53 62 73 77 51 87 77 86 86 78 68 59 51 49 47 47 48 55 60 62 67 77 84 87 91 95 92 87 85 86 90 91 87 81 74
16 23 39 45 50 30 11 19 34 44 53 52 23 17 42 17 23 24 24 21 19 23 32 35 35 38 41 45 51 57 64 71 77 83 85 83 81 80 82 83 81 77 70 66
42 23 9 15 6 29 26 18 6 13 35 7 19 27 29 12 20 30 29 35 40 37 32 29 27 25 26 29 35 39 47 51 57 64 69 70 70 73 74 72 65 64 67 61
29 30 26 12 5 22 8 5 8 8 13 17 22 27 35 30 24 32 38 27 14 10 10 7 5 5 7 8 12 18 24 29 36 47 57 60 58 55 59 66 65 56 58 51
12 3 8 6 17 26 20 18 15 14 15 17 13 13 12 5 2 5 7 10 13 15 18 24 27 24 17 13 11 11 11 15 22 31 40 51 59 61 57 60 60 62 55 58
1 11 15 48 63 51 43 34 22 18 15 15 10 7 15 18 25 31 33 35 36 33 30 31 31 30 26 24 23 19 16 13 14 22 33 45 52 58 61 64 61 60 61 59
10 8 7 34 41 29 25 24 24 21 17 17 18 20 24 29 30 24 23 25 25 20 22 24 28 26 22 17 15 17 17 16 16 17 20 24 30 35 39 39 39 40 40 45
15 9 14 11 42 52 46 37 29 21 17 15 16 18 18 19 19 17 17 17 16 15 15 20 18 18 19 19 19 14 13 14 15 18 22 27 30 35 37 37 40 42 43 45
7 10 16 9 19 52 47 35 26 22 18 18 16 15 16 24 26 28 32 31 31 32 30 29 27 25 25 22 20 18 15 11 10 11 14 18 23 28 31 36 40 41 43 44
11 12 2 20 20 48 43 34 25 23 20 17 16 17 22 29 34 31 33 35 33 31 28 24 21 16 17 15 13 10 8 7 8 10 13 17 21 26 31 34 33 35 38 45
28 27 17 21 36 49 40 37 31 29 27 27 28 30 30 37 39 37 34 32 27 23 21 18 13 9 6 5 3 4 7 11 14 18 21 24 26 28 30 34 37 39 40 40
25 28 23 35 56 49 45 44 45 31 24 24 30 34 32 30 31 31 30 26 22 19 15 10 6 3 3 5 7 9 12 16 18 20 22 25 28 29 32 33 35 37 36 38
24 22 31 35 39 41 41 42 41 36 34 34 35 34 30 28 27 25 23 19 13 11 7 3 2 5 8 10 12 12 14 15 18 18 19 22 23 24 25 27 28 30 31 33
25 25 29 37 41 43 40 36 40 42 40 38 35 32 26 24 22 23 20 17 13 10 9 6 3 6 8 10 11 12 13 13 13 13 14 15 17 18 19 21 23 25 28 32
24 27 31 38 41 44 46 44 38 36 35 32 29 28 26 23 21 18 15 13 9 7 7 5 5 6 7 9 10 10 10 10 11 11 12 14 15 17 19 21 23 25 26 29
31 35 37 38 38 37 38 38 34 33 32 28 25 24 24 23 20 16 15 10 8 8 7 4 3 3 4 6 7 8 9 10 11 13 14 16 17 19 21 23 24 25 27 29
32 33 35 34 35 34 33 34 33 32 34 32 27 29 27 27 26 22 19 14 17 14 11 8 7 7 8 10 11 12 13 14 15 16 17 18 20 21 23 25 27 29 32 33
31 32 34 33 33 35 35 35 33 35 36 35 33 31 29 30 25 21 21 16 17 14 10 7 4 2 4 6 8 11 12 14 16 18 20 23 25 28 31 33 35 37 38 38
32 34 36 37 38 41 42 41 40 38 40 38 35 32 26 26 26 17 12 13 11 8 5 1 2 5 7 10 12 15 18 20 23 25 28 30 32 34 35 36 37 38 38 37
39 40 43 44 44 45 48 46 41 38 35 35 31 28 24 19 15 13 10 6 2 2 5 8 11 14 17 20 22 25 27 29 30 32 33 35 36 37 37 37 37 38 39 40
46 48 48 46 45 46 44 42 39 36 30 28 26 22 17 12 8 6 2 4 8 11 15 18 22 25 27 29 31 32 33 35 37 39 39 39 39 40 39 40 40 41 42 43
47 47 45 42 42 40 37 30 29 30 23 19 16 13 9 6 4 6 10 14 18 22 26 29 32 34 36 38 39 39 40 40 41 42 43 43 44 45 45 46 46 47 48 47
45 43 41 40 37 33 29 26 21 20 16 12 8 7 6 9 12 16 20 23 26 30 33 35 37 39 40 42 43 44 45 46 47 48 49 50 51 52 52 53 54 54 54 54
Wind_Direction_500mb
244 239 210 202 179 188 204 228 214 255 246 262 254 249 249 258 265 260 264 276 290 290 279 278 272 260 251 245 240 237 234 234 233 230 228 228 228 227 223 219 215 214 214 214
253 250 231 251 212 214 218 236 238 253 259 259 264 273 245 251 257 260 268 279 281 276 276 275 278 270 259 251 247 241 237 236 235 231 228 227 227 225 222 219 215 215 215 217
241 238 238 252 241 248 250 246 233 244 252 267 266 258 256 252 257 263 267 268 275 280 281 278 275 272 269 257 249 246 242 238 235 232 229 228 228 226 223 219 216 215 216 217
245 227 230 239 200 226 234 241 232 247 257 260 257 264 270 264 262 269 273 277 283 287 284 283 279 273 269 260 252 247 243 239 235 232 230 229 227 225 224 220 217 217 218 218
228 235 253 282 244 197 172 246 231 231 248 257 259 273 276 268 271 277 281 284 288 290 286 282 274 273 268 261 255 249 244 240 236 232 229 227 227 225 222 219 218 219 221 220
239 236 239 239 244 168 118 246 243 214 241 249 218 239 265 268 262 268 284 288 289 293 294 283 277 272 266 260 254 250 247 243 238 233 230 227 225 225 223 221 222 221 220 221
225 241 256 261 186 166 174 231 56 193 236 281 205 233 248 237 267 288 288 287 292 292 285 279 272 270 267 263 257 254 249 246 241 234 230 227 225 223 223 220 220 221 220 231
223 232 233 193 105 171 197 192 190 206 232 252 252 252 261 276 277 276 281 294 294 283 271 277 304 305 272 248 246 247 247 244 236 227 223 223 222 225 225 223 218 227 229 228
220 199 345 280 264 215 235 275 221 206 235 248 257 265 267 258 204 168 134 112 101 90 99 101 94 85 85 96 103 123 159 192 208 214 216 218 219 219 218 219 229 238 231 235
179 214 226 226 228 233 227 216 219 197 195 201 208 173 134 118 115 108 104 102 104 104 101 100 100 101 98 96 95 96 111 142 176 203 214 221 225 226 228 230 228 227 233 237
260 253 250 252 229 229 217 198 169 160 152 136 143 148 138 138 134 127 125 129 126 120 115 124 127 128 133 139 152 160 162 168 178 183 188 200 209 218 221 225 234 243 249 250
235 285 247 235 227 209 194 182 168 174 180 175 173 171 166 155 154 153 151 143 143 135 135 130 130 127 128 134 138 151 171 182 196 209 213 217 222 226 230 232 234 238 241 243
271 264 225 248 228 193 181 173 173 180 174 165 169 173 163 151 139 136 133 129 125 124 122 120 118 119 120 123 126 128 130 141 161 189 207 220 225 229 232 229 232 237 239 245
226 181 219 183 186 179 176 163 169 176 174 174 178 162 156 151 139 139 134 129 125 126 128 126 124 131 130 133 137 146 164 180 201 216 227 232 235 236 236 238 241 242 247 252
204 202 248 205 176 175 172 163 150 147 145 144 145 152 154 149 143 143 138 133 137 141 143 136 133 130 118 134 180 231 257 261 260 259 257 255 250 247 245 245 247 249 252 259
206 208 187 173 170 176 178 175 165 148 149 157 152 150 149 149 144 142 143 144 149 148 142 140 161 175 226 257 265 271 274 274 273 271 267 263 259 256 254 253 253 254 254 255
166 167 165 164 172 170 171 165 157 151 153 148 146 143 144 141 137 133 133 135 133 127 123 141 277 281 284 286 284 284 280 276 273 272 269 265 262 259 257 256 254 253 254 256
186 182 175 173 166 166 160 157 161 156 150 147 144 141 138 131 130 128 127 125 119 116 108 87 39 347 330 322 320 317 305 299 294 287 279 272 268 264 259 256 253 251 251 254
162 159 159 161 156 157 151 149 153 151 148 147 148 148 146 142 135 133 126 119 119 101 89 79 41 10 350 344 339 325 310 298 288 279 272 268 264 259 256 253 252 252 255 257
159 159 157 155 152 154 151 152 150 152 147 147 152 150 148 143 138 138 133 135 125 122 113 101 72 36 2 356 352 339 327 316 306 298 290 284 279 276 272 268 263 260 261 265
161 153 156 154 151 149 150 148 149 152 148 145 150 149 148 145 142 139 135 150 145 137 127 106 71 37 10 356 345 335 325 316 307 298 291 284 277 273 270 269 270 273 275 275
152 152 149 149 151 149 143 141 145 148 145 144 143 140 142 140 135 139 143 134 123 115 105 96 79 26 342 331 322 317 313 309 304 300 296 291 289 287 285 283 281 280 278 277
141 143 143 144 145 142 135 133 135 136 137 135 132 126 128 127 129 129 130 120 117 115 113 103 293 283 283 288 290 291 289 285 283 281 281 280 279 278 277 275 274 273 273 274
132 132 132 130 132 132 130 123 124 123 123 121 121 119 113 106 102 101 102 96 74 296 291 296 296 293 289 286 285 282 280 279 280 280 280 280 281 280 279 278 277 278 278 279
127 126 126 128 132 124 121 120 120 113 113 112 110 109 106 97 96 100 62 302 295 292 291 291 291 291 291 290 288 285 284 284 283 284 284 284 283 282 281 281 281 279 279 279
125 125 126 125 120 117 113 117 119 115 110 109 102 92 78 57 19 330 309 304 301 299 296 294 292 292 292 293 293 292 290 289 288 288 287 286 284 283 283 282 281 280 279 278
124 124 123 121 118 116 117 114 110 107 101 88 66 46 360 332 319 310 304 302 300 298 297 297 297 296 294 293 292 291 290 289 288 287 285 284 283 283 282 281 280 280 279 279
Wind_Speed_850mb
44 15 6 11 9 20 33 57 23 62 40 62 30 28 43 65 59 51 56 56 53 50 46 50 51 51 56 63 71 81 86 89 92 92 90 86 85 84 86 90 94 91 85 78
39 34 19 18 15 28 46 46 33 60 56 64 58 35 34 55 66 80 80 74 72 62 58 58 62 63 62 65 73 79 86 90 91 92 93 92 90 88 87 92 95 94 87 80
31 29 14 25 51 50 42 48 42 43 71 43 43 35 55 59 70 78 76 84 86 79 78 72 67 68 71 70 73 79 84 88 92 95 97 95 90 88 89 93 96 95 89 81
21 9 29 34 16 45 50 53 46 48 68 63 57 66 72 69 66 78 77 80 87 83 74 72 67 69 70 68 68 75 83 87 91 96 97 95 91 88 88 92 95 92 86 79
28 38 34 23 21 27 23 43 45 53 62 73 77 51 87 77 86 86 78 68 59 51 49 47 47 48 55 60 62 67 77 84 87 91 95 92 87 85 86 90 91 87 81 74
16 23 39 45 50 30 11 19 34 44 53 52 23 17 42 17 23 24 24 21 19 23 32 35 35 38 41 45 51 57 64 71 77 83 85 83 81 80 82 83 81 77 70 66
42 23 9 15 6 29 26 18 6 13 35 7 19 27 29 12 20 30 29 35 40 37 32 29 27 25 26 29 35 39 47 51 57 64 69 70 70 73 74 72 65 64 67 61
29 30 26 12 5 22 8 5 8 8 13 17 22 27 35 30 24 32 38 27 14 10 10 7 5 5 7 8 12 18 24 29 36 47 57 60 58 55 59 66 65 56 58 51
12 3 8 6 17 26 20 18 15 14 15 17 13 13 12 5 2 5 7 10 13 15 18 24 27 24 17 13 11 11 11 15 22 31 40 51 59 61 57 60 60 62 55 58
1 11 15 48 63 51 43 34 22 18 15 15 10 7 15 18 25 31 33 35 36 33 30 31 31 30 26 24 23 19 16 13 14 22 33 45 52 58 61 64 61 60 61 59
10 8 7 34 41 29 25 24 24 21 17 17 18 20 24 29 30 24 23 25 25 20 22 24 28 26 22 17 15 17 17 16 16 17 20 24 30 35 39 39 39 40 40 45
15 9 14 11 42 52 46 37 29 21 17 15 16 18 18 19 19 17 17 17 16 15 15 20 18 18 19 19 19 14 13 14 15 18 22 27 30 35 37 37 40 42 43 45
7 10 16 9 19 52 47 35 26 22 18 18 16 15 16 24 26 28 32 31 31 32 30 29 27 25 25 22 20 18 15 11 10 11 14 18 23 28 31 36 40 41 43 44
11 12 2 20 20 48 43 34 25 23 20 17 16 17 22 29 34 31 33 35 33 31 28 24 21 16 17 15 13 10 8 7 8 10 13 17 21 26 31 34 33 35 38 45
28 27 17 21 36 49 40 37 31 29 27 27 28 30 30 37 39 37 34 32 27 23 21 18 13 9 6 5 3 4 7 11 14 18 21 24 26 28 30 34 37 39 40 40
25 28 23 35 56 49 45 44 45 31 24 24 30 34 32 30 31 31 30 26 22 19 15 10 6 3 3 5 7 9 12 16 18 20 22 25 28 29 32 33 35 37 36 38
24 22 31 35 39 41 41 42 41 36 34 34 35 34 30 28 27 25 23 19 13 11 7 3 2 5 8 10 12 12 14 15 18 18 19 22 23 24 25 27 28 30 31 33
25 25 29 37 41 43 40 36 40 42 40 38 35 32 26 24 22 23 20 17 13 10 9 6 3 6 8 10 11 12 13 13 13 13 14 15 17 18 19 21 23 25 28 32
24 27 31 38 41 44 46 44 38 36 35 32 29 28 26 23 21 18 15 13 9 7 7 5 5 6 7 9 10 10 10 10 11 11 12 14 15 17 19 21 23 25 26 29
31 35 37 38 38 37 38 38 34 33 32 28 25 24 24 23 20 16 15 10 8 8 7 4 3 3 4 6 7 8 9 10 11 13 14 16 17 19 21 23 24 25 27 29
32 33 35 34 35 34 33 34 33 32 34 32 27 29 27 27 26 22 19 14 17 14 11 8 7 7 8 10 11 12 13 14 15 16 17 18 20 21 23 25 27 29 32 33
31 32 34 33 33 35 35 35 33 35 36 35 33 31 29 30 25 21 21 16 17 14 10 7 4 2 4 6 8 11 12 14 16 18 20 23 25 28 31 33 35 37 38 38
32 34 36 37 38 41 42 41 40 38 40 38 35 32 26 26 26 17 12 13 11 8 5 1 2 5 7 10 12 15 18 20 23 25 28 30 32 34 35 36 37 38 38 37
39 40 43 44 44 45 48 46 41 38 35 35 31 28 24 19 15 13 10 6 2 2 5 8 11 14 17 20 22 25 27 29 30 32 33 35 36 37 37 37 37 38 39 40
46 48 48 46 45 46 44 42 39 36 30 28 26 22 17 12 8 6 2 4 8 11 15 18 22 25 27 29 31 32 33 35 37 39 39 39 39 40 39 40 40 41 42 43
47 47 45 42 42 40 37 30 29 30 23 19 16 13 9 6 4 6 10 14 18 22 26 29 32 34 36 38 39 39 40 40 41 42 43 43 44 45 45 46 46 47 48 47
45 43 41 40 37 33 29 26 21 20 16 12 8 7 6 9 12 16 20 23 26 30 33 35 37 39 40 42 43 44 45 46 47 48 49 50 51 52 52 53 54 54 54 54
Wind_Direction_850mb
244 239 210 202 179 188 204 228 214 255 246 262 254 249 249 258 265 260 264 276 290 290 279 278 272 260 251 245 240 237 234 234 233 230 228 228 228 227 223 219 215 214 214 214
253 250 231 251 212 214 218 236 238 253 259 259 264 273 245 251 257 260 268 279 281 276 276 275 278 270 259 251 247 241 237 236 235 231 228 227 227 225 222 219 215 215 215 217
241 238 238 252 241 248 250 246 233 244 252 267 266 258 256 252 257 263 267 268 275 280 281 278 275 272 269 257 249 246 242 238 235 232 229 228 228 226 223 219 216 215 216 217
245 227 230 239 200 226 234 241 232 247 257 260 257 264 270 264 262 269 273 277 283 287 284 283 279 273 269 260 252 247 243 239 235 232 230 229 227 225 224 220 217 217 218 218
228 235 253 282 244 197 172 246 231 231 248 257 259 273 276 268 271 277 281 284 288 290 286 282 274 273 268 261 255 249 244 240 236 232 229 227 227 225 222 219 218 219 221 220
239 236 239 239 244 168 118 246 243 214 241 249 218 239 265 268 262 268 284 288 289 293 294 283 277 272 266 260 254 250 247 243 238 233 230 227 225 225 223 221 222 221 220 221
225 241 256 261 186 166 174 231 56 193 236 281 205 233 248 237 267 288 288 287 292 292 285 279 272 270 267 263 257 254 249 246 241 234 230 227 225 223 223 220 220 221 220 231
223 232 233 193 105 171 197 192 190 206 232 252 252 252 261 276 277 276 281 294 294 283 271 277 304 305 272 248 246 247 247 244 236 227 223 223 222 225 225 223 218 227 229 228
220 199 345 280 264 215 235 275 221 206 235 248 257 265 267 258 204 168 134 112 101 90 99 101 94 85 85 96 103 123 159 192 208 214 216 218 219 219 218 219 229 238 231 235
179 214 226 226 228 233 227 216 219 197 195 201 208 173 134 118 115 108 104 102 104 104 101 100 100 101 98 96 95 96 111 142 176 203 214 221 225 226 228 230 228 227 233 237
260 253 250 252 229 229 217 198 169 160 152 136 143 148 138 138 134 127 125 129 126 120 115 124 127 128 133 139 152 160 162 168 178 183 188 200 209 218 221 225 234 243 249 250
235 285 247 235 227 209 194 182 168 174 180 175 173 171 166 155 154 153 151 143 143 135 135 130 130 127 128 134 138 151 171 182 196 209 213 217 222 226 230 232 234 238 241 243
271 264 225 248 228 193 181 173 173 180 174 165 169 173 163 151 139 136 133 129 125 124 122 120 118 119 120 123 126 128 130 141 161 189 207 220 225 229 232 229 232 237 239 245
226 181 219 183 186 179 176 163 169 176 174 174 178 162 156 151 139 139 134 129 125 126 128 126 124 131 130 133 137 146 164 180 201 216 227 232 235 236 236 238 241 242 247 252
204 202 248 205 176 175 172 163 150 147 145 144 145 152 154 149 143 143 138 133 137 141 143 136 133 130 118 134 180 231 257 261 260 259 257 255 250 247 245 245 247 249 252 259
206 208 187 173 170 176 178 175 165 148 149 157 152 150 149 149 144 142 143 144 149 148 142 140 161 175 226 257 265 271 274 274 273 271 267 263 259 256 254 253 253 254 254 255
166 167 165 164 172 170 171 165 157 151 153 148 146 143 144 141 137 133 133 135 133 127 123 141 277 281 284 286 284 284 280 276 273 272 269 265 262 259 257 256 254 253 254 256
186 182 175 173 166 166 160 157 161 156 150 147 144 141 138 131 130 128 127 125 119 116 108 87 39 347 330 322 320 317 305 299 294 287 279 272 268 264 259 256 253 251 251 254
162 159 159 161 156 157 151 149 153 151 148 147 148 148 146 142 135 133 126 119 119 101 89 79 41 10 350 344 339 325 310 298 288 279 272 268 264 259 256 253 252 252 255 257
159 159 157 155 152 154 151 152 150 152 147 147 152 150 148 143 138 138 133 135 125 122 113 101 72 36 2 356 352 339 327 316 306 298 290 284 279 276 272 268 263 260 261 265
161 153 156 154 151 149 150 148 149 152 148 145 150 149 148 145 142 139 135 150 145 137 127 106 71 37 10 356 345 335 325 316 307 298 291 284 277 273 270 269 270 273 275 275
152 152 149 149 151 149 143 141 145 148 145 144 143 140 142 140 135 139 143 134 123 115 105 96 79 26 342 331 322 317 313 309 304 300 296 291 289 287 285 283 281 280 278 277
141 143 143 144 145 142 135 133 135 136 137 135 132 126 128 127 129 129 130 120 117 115 113 103 293 283 283 288 290 291 289 285 283 281 281 280 279 278 277 275 274 273 273 274
132 132 132 130 132 132 130 123 124 123 123 121 121 119 113 106 102 101 102 96 74 296 291 296 296 293 289 286 285 282 280 279 280 280 280 280 281 280 279 278 277 278 278 279
127 126 126 128 132 124 121 120 120 113 113 112 110 109 106 97 96 100 62 302 295 292 291 291 291 291 291 290 288 285 284 284 283 284 284 284 283 282 281 281 281 279 279 279
125 125 126 125 120 117 113 117 119 115 110 109 102 92 78 57 19 330 309 304 301 299 296 294 292 292 292 293 293 292 290 289 288 288 287 286 284 283 283 282 281 280 279 278
124 124 123 121 118 116 117 114 110 107 101 88 66 46 360 332 319 310 304 302 300 298 297 297 297 296 294 293 292 291 290 289 288 287 285 284 283 283 282 281 280 280 279 279